Dewpoint
0 -2 6 9 10 10 10 10 8 8 5 3 2 3 4 8 7 9 11 12 5 4 11 5 4 10 13 13 12 11 8 7 -1 10 4 8 6 4 3 7 8 9 8 11 11 9 8 10 11
-5 -7 1 9 10 10 8 8 9 7 6 4 2 5 9 10 11 11 12 10 6 7 12 6 7 12 13 12 12 11 10 7 -4 2 6 7 9 10 9 10 10 10 11 12 9 9 9 10 9
4 4 5 8 9 7 7 7 6 4 6 4 3 5 7 11 12 11 11 10 6 7 10 6 12 13 13 13 12 11 11 5 -6 3 10 11 11 11 11 11 11 11 11 10 10 10 9 11 9
9 7 5 8 10 8 6 3 6 5 5 4 4 3 9 10 11 11 10 10 8 6 9 9 13 13 12 13 12 12 11 3 -4 8 11 11 11 11 9 10 11 9 9 9 10 9 9 8 8
8 6 5 7 7 4 3 4 3 2 1 -0 1 7 12 12 11 10 9 10 9 8 9 11 13 13 13 13 12 12 10 0 3 11 10 11 11 11 10 6 9 6 9 10 10 9 9 8 8
8 6 6 4 3 2 1 -0 1 1 1 -0 -0 7 13 12 12 10 10 9 9 9 9 12 12 12 13 14 13 12 8 -1 5 11 10 10 11 10 10 4 7 10 9 9 9 9 8 9 9
6 6 6 4 0 -3 -3 -3 1 -1 -0 -1 -1 12 14 13 13 11 11 11 11 10 9 13 13 13 14 13 13 11 6 -1 11 10 10 10 11 10 6 2 10 10 8 9 9 9 8 9 9
7 5 6 5 3 0 -1 -4 -5 -4 -5 -8 -4 12 14 12 13 12 14 14 12 11 11 13 14 13 13 13 13 11 5 9 11 10 10 10 10 10 7 3 9 8 7 8 8 8 9 8 8
6 7 5 4 3 -0 -1 -1 -2 -2 -4 -3 4 8 10 13 14 14 14 15 15 14 14 13 13 12 13 13 12 10 4 9 10 10 9 10 10 10 8 5 9 8 7 8 8 8 8 8 8
6 6 4 2 0 0 -2 -1 -3 -3 -4 1 9 12 11 13 14 14 14 15 15 14 14 13 12 11 13 12 12 9 9 10 10 10 10 9 9 9 8 9 9 9 7 8 8 7 8 8 8
7 6 2 3 0 0 1 0 -1 -3 -2 5 10 14 13 12 16 14 14 13 14 13 13 12 11 12 12 12 12 8 8 10 9 10 10 10 9 9 9 10 9 9 7 8 7 6 7 6 4
7 5 4 2 1 2 3 1 0 -1 -3 -4 1 4 12 14 14 14 14 14 13 13 12 12 12 12 12 11 11 9 7 9 9 9 7 9 5 8 7 7 9 8 7 7 6 6 5 4 0
6 5 3 4 3 3 2 2 2 1 -1 -2 -3 11 14 11 14 15 14 14 14 14 13 12 12 13 12 11 11 9 7 6 8 6 6 5 1 -1 -1 3 8 7 6 6 6 5 5 4 2
3 3 2 3 4 4 3 2 2 0 -0 0 4 13 14 13 14 14 13 14 14 14 13 12 11 11 11 11 11 10 7 6 5 3 2 4 2 -4 -4 1 8 7 6 6 5 5 5 3 0
3 5 3 2 3 4 4 5 4 0 1 1 4 13 13 8 12 13 13 12 13 14 13 12 11 11 12 12 11 10 8 6 5 1 -1 1 1 -3 -4 1 7 7 6 6 5 5 4 2 -2
3 4 4 1 -0 2 5 5 0 2 1 -1 0 12 13 7 7 13 13 12 11 12 13 12 12 12 12 12 11 9 8 7 5 1 -1 0 0 -4 -3 1 5 6 6 5 4 1 3 1 -4
4 4 3 3 1 2 4 3 1 0 2 1 -1 0 10 10 11 12 13 13 12 11 11 13 12 12 12 13 11 10 9 8 6 0 0 3 -1 -4 -4 -0 3 5 4 2 -0 1 -1 -3 -7
-2 -1 2 4 2 2 3 4 1 1 1 1 -0 1 0 2 6 10 12 13 14 12 11 10 11 12 13 12 11 9 9 8 5 1 3 4 1 -4 -3 -1 -1 -1 -0 0 2 -0 -1 -7 -11
-1 -1 0 -1 -4 4 4 4 2 2 1 1 1 0 1 0 1 1 5 10 13 13 12 12 12 12 12 12 11 9 9 8 5 4 5 6 5 -3 -3 -3 -3 -4 -4 -2 1 -0 -4 -7 -11
-6 -4 -1 -2 -4 -1 1 3 1 2 2 1 1 1 0 -0 -0 1 2 4 11 13 13 12 12 13 12 12 11 10 9 9 6 4 5 6 5 -1 -4 -4 -5 -6 -5 -2 -1 -3 -6 -9 -13
-8 -2 -2 -2 -3 -3 0 1 -0 1 2 1 1 0 1 1 0 -1 -0 4 11 12 13 11 10 12 12 12 11 10 9 9 7 7 6 5 4 -1 -5 -5 -6 -8 -7 -7 -6 -7 -9 -11 -14
-6 -8 -6 -5 -2 -0 0 2 -1 1 3 1 1 0 0 0 1 0 -1 0 11 12 10 8 9 11 11 12 11 10 9 8 6 6 6 5 4 -1 -5 -5 -6 -9 -8 -8 -9 -9 -10 -13 -13
-5 -8 -7 -6 -3 -1 -2 0 2 -1 1 1 -0 0 -0 -1 -0 1 1 -1 2 11 11 7 8 10 11 11 11 10 9 9 7 7 7 5 4 -0 -4 -5 -7 -10 -10 -8 -10 -11 -12 -12 -12
-8 -5 -7 -2 -1 -1 -4 -2 -3 1 4 2 -0 -0 0 -0 -0 1 -1 0 1 5 10 6 7 9 10 11 10 10 9 8 8 8 7 5 3 0 -2 -5 -8 -11 -11 -9 -11 -11 -11 -11 -11
-4 -5 -5 -1 -1 -2 -4 -2 -4 -2 -6 -2 -0 -1 1 0 -0 0 1 1 5 8 4 6 7 9 10 10 10 8 9 9 8 8 7 5 3 0 -1 -3 -10 -13 -15 -11 -10 -10 -10 -11 -10
-5 -4 -4 -2 -0 -4 -4 -1 -1 -4 -4 -1 -0 -0 -1 1 0 -0 0 -0 4 7 7 10 8 9 9 10 10 9 9 9 9 8 7 5 3 1 -1 -3 -9 -15 -15 -13 -12 -10 -9 -9 -10
-3 -2 -4 -3 -4 -0 -2 -1 -4 -2 -3 -1 -1 -2 0 0 0 0 0 0 2 4 6 6 8 9 9 9 10 9 9 9 9 8 7 5 4 0 -1 -3 -8 -14 -14 -14 -14 -12 -10 -10 -11
-6 -4 -5 -1 -2 -0 -3 -1 -5 1 0 -1 -1 -2 -3 -1 -1 -0 0 0 2 2 2 3 4 9 9 9 9 9 9 9 8 8 7 6 3 1 -2 -4 -8 -13 -13 -14 -14 -12 -12 -12 -12
-6 -5 -5 -4 -4 0 -0 -2 0 1 -4 -2 -1 -1 -2 -4 -1 -1 -1 -1 0 3 5 5 3 6 10 9 9 8 8 8 9 8 8 7 4 2 -2 -4 -8 -12 -13 -13 -12 -11 -11 -11 -11
-9 -4 -5 -4 -4 -4 -1 2 -2 -0 -1 0 -1 -1 -0 -3 -4 -2 -1 -1 1 2 4 5 5 6 7 9 9 8 7 8 8 8 7 6 5 1 -1 -4 -7 -11 -12 -12 -12 -10 -10 -10 -10
Wind_Speed
8 10 14 8 2 2 5 8 3 4 3 14 13 2 5 3 5 5 6 26 31 40 36 35 33 31 29 27 25 22 16 12 13 16 15 15 13 12 10 10 11 11 11 18 19 22 20 20 20
10 13 14 5 3 4 5 6 12 18 10 4 6 7 3 6 6 5 23 25 32 40 37 36 34 31 30 28 25 20 14 10 10 13 13 16 13 15 14 12 15 16 20 20 22 20 21 17 17
15 17 8 4 4 10 6 9 23 13 24 12 6 2 4 4 8 12 18 25 38 41 38 36 33 32 30 29 26 20 14 10 10 13 18 18 19 19 17 18 18 20 21 23 25 19 19 17 15
13 9 2 3 15 6 6 6 6 3 16 31 21 7 8 10 7 19 22 31 41 42 39 36 34 32 31 28 24 20 14 10 11 18 21 20 20 22 17 18 20 20 27 26 21 20 18 14 14
15 4 3 5 7 5 9 15 9 4 4 7 7 5 4 13 16 20 25 34 42 42 39 37 35 33 29 28 23 18 13 10 16 22 22 22 23 21 21 20 21 24 28 23 22 20 17 14 14
6 2 2 10 10 6 7 30 7 8 14 24 7 6 7 14 16 24 29 35 38 41 40 37 35 32 29 28 23 18 13 12 18 23 23 24 24 22 21 24 23 23 24 24 23 21 19 18 17
6 4 5 5 4 7 12 12 9 22 14 17 11 6 6 20 19 26 32 37 37 39 40 37 35 31 28 27 23 18 14 13 23 23 23 23 25 23 21 24 26 22 26 26 25 22 19 18 20
10 4 5 7 7 13 6 10 11 22 18 29 17 7 6 28 27 31 34 37 38 40 40 38 36 31 29 26 23 19 15 22 26 24 23 25 24 24 23 26 27 24 28 27 25 22 20 21 21
14 4 14 13 12 13 3 7 18 10 15 9 15 11 13 35 34 36 37 35 37 39 40 39 35 32 30 28 23 19 16 22 25 24 24 25 25 24 24 27 29 26 30 27 25 22 23 23 19
7 8 17 6 16 6 4 8 4 4 13 8 10 12 16 38 40 43 42 41 40 41 41 39 36 35 33 30 26 23 22 27 26 26 27 27 25 25 26 26 29 26 29 27 24 22 22 18 15
12 24 10 8 21 17 13 7 7 4 6 9 19 20 35 42 42 45 44 44 45 43 42 40 37 35 34 32 27 26 26 29 28 28 29 27 27 26 28 28 32 28 30 28 25 22 19 16 14
15 27 25 1 24 16 7 4 6 19 16 11 21 27 39 45 46 45 45 45 43 43 42 42 39 37 35 31 29 27 26 29 29 28 28 30 28 28 30 31 35 29 28 25 24 22 20 17 18
23 26 18 27 33 25 19 16 11 17 29 26 23 30 39 47 48 45 44 44 43 45 43 40 40 37 35 31 30 28 27 29 30 26 28 29 26 25 28 34 37 30 27 25 24 22 21 18 17
12 22 34 33 26 14 22 19 9 25 31 25 19 31 36 43 48 47 44 44 46 47 46 44 38 38 36 36 32 29 27 28 27 25 28 27 24 23 27 36 37 32 27 24 22 20 18 17 16
18 22 23 25 21 19 10 22 27 34 9 23 23 27 32 39 42 48 48 48 46 46 48 46 42 41 40 37 33 31 26 28 27 27 28 27 24 24 29 36 38 34 29 25 22 19 16 16 16
8 10 19 20 25 15 16 34 21 29 29 35 27 32 29 38 39 40 46 46 46 44 47 46 46 41 40 38 35 33 29 28 27 29 29 27 25 26 31 35 37 35 31 27 23 20 18 16 16
9 16 17 17 12 9 22 34 10 25 30 32 33 34 36 36 38 39 38 42 45 45 43 46 47 45 40 39 37 35 31 29 28 31 30 26 25 28 32 34 35 34 31 27 23 20 19 20 20
22 21 17 16 6 19 21 33 20 10 26 30 30 32 38 41 43 41 39 38 39 43 44 43 45 45 44 42 39 37 32 31 30 33 31 28 26 30 33 34 33 31 29 26 23 21 21 21 22
11 10 14 21 21 9 21 25 20 19 20 19 30 31 37 41 41 39 39 40 39 42 42 43 46 48 46 47 45 42 35 32 33 34 31 29 27 30 33 33 31 29 28 26 24 24 24 24 23
21 19 17 16 16 17 24 27 18 17 23 29 27 28 31 25 34 36 38 38 42 44 44 44 47 49 49 49 44 39 35 34 34 34 30 29 27 31 33 33 32 31 30 29 28 27 28 25 24
16 11 8 12 13 20 15 26 27 17 23 27 32 40 36 34 36 38 37 41 41 44 48 46 46 50 49 48 45 44 42 39 38 36 33 33 29 32 34 33 32 31 31 31 30 29 28 29 27
13 12 17 17 11 10 8 17 18 14 20 21 24 30 34 37 36 41 46 45 43 45 47 46 45 48 50 50 50 50 46 41 41 39 36 35 31 31 33 32 32 32 32 32 31 29 28 26 27
9 14 17 16 13 12 15 6 2 11 16 20 22 33 40 45 35 37 39 48 45 43 44 46 45 49 51 51 52 50 43 41 43 42 40 36 34 32 32 32 33 33 33 32 31 30 28 25 24
18 12 17 13 11 14 14 10 9 6 5 11 16 30 37 38 37 39 38 40 48 45 46 46 47 50 52 52 48 53 50 47 44 44 40 37 36 34 32 32 33 33 33 32 31 28 26 24 23
8 11 3 6 8 7 10 10 13 11 20 18 19 27 32 39 37 36 39 42 44 47 50 49 49 52 52 51 52 49 53 47 43 42 42 41 38 37 35 34 35 34 33 32 30 28 26 25 23
17 6 3 7 5 10 13 10 6 20 16 10 14 27 33 34 38 43 41 42 47 48 51 49 50 51 51 51 51 50 52 47 44 43 40 40 42 37 36 34 35 34 33 32 30 29 27 26 22
6 3 7 4 8 4 4 3 1 9 15 8 12 12 23 33 41 43 45 44 48 50 53 52 49 49 50 48 48 55 50 54 50 45 41 41 40 38 36 37 36 35 34 33 32 31 29 26 23
9 4 5 3 3 6 4 7 5 8 10 12 9 9 11 26 34 40 40 43 44 46 50 50 49 50 50 49 48 49 51 54 50 45 45 42 39 38 38 39 37 35 35 33 33 31 29 26 24
7 4 3 5 5 3 3 3 12 16 9 9 8 10 9 19 33 37 39 39 43 42 46 52 48 47 48 47 49 49 49 48 50 47 42 41 40 37 38 37 37 37 36 34 32 30 29 27 25
7 6 5 4 4 4 3 4 18 15 2 12 7 19 7 11 24 37 38 41 41 41 41 46 46 46 45 46 48 46 47 48 51 46 45 41 39 37 37 36 37 37 36 35 35 33 31 28 26
Wind_Direction
215 194 174 169 106 217 221 241 263 255 236 221 232 212 234 237 178 210 174 168 173 169 166 166 164 160 164 168 169 171 164 164 164 149 172 174 175 177 169 156 152 140 137 126 118 123 121 120 118
181 171 170 171 186 211 228 230 238 221 216 296 267 212 230 256 213 163 153 160 175 168 166 165 164 165 170 174 174 173 168 166 164 164 155 148 149 133 127 134 129 127 122 124 127 124 129 128 128
163 165 162 179 209 220 214 216 235 243 239 253 319 263 215 243 205 174 167 167 172 169 166 165 166 169 175 175 179 176 173 174 172 156 138 147 142 134 135 130 127 126 131 128 130 134 138 132 129
171 175 203 204 232 249 212 231 227 234 244 248 256 281 232 217 209 172 167 166 171 170 168 166 169 172 178 181 179 176 175 179 172 145 149 145 139 138 137 144 126 126 129 134 135 138 135 134 130
177 173 216 238 244 246 235 247 234 229 293 254 212 220 239 208 176 172 176 170 173 169 169 168 174 178 180 182 182 178 179 178 162 149 148 147 145 150 139 141 128 129 135 139 134 133 129 127 126
186 192 204 232 230 235 240 244 218 214 238 254 276 213 198 191 188 175 172 172 176 170 170 171 177 182 182 184 183 181 182 179 158 151 153 152 146 150 140 135 133 128 138 139 137 136 133 126 122
183 161 231 244 227 246 234 226 195 238 240 248 232 184 194 182 185 177 174 173 175 175 172 173 178 181 184 185 184 185 185 174 154 156 155 152 152 149 145 142 133 140 140 142 145 140 142 135 134
202 163 232 214 211 255 227 193 234 213 241 250 214 200 176 185 181 177 172 172 176 177 175 177 179 179 187 185 186 187 186 158 157 158 160 151 154 146 147 143 138 146 144 147 149 151 146 138 138
195 228 237 223 197 231 214 210 230 241 210 211 193 202 204 181 181 175 170 170 172 176 179 179 180 183 187 186 185 186 185 162 160 164 161 154 152 150 148 146 146 156 151 154 159 160 153 144 149
185 220 233 186 221 229 212 195 258 188 214 216 210 195 188 179 179 175 174 173 175 178 183 182 182 189 187 185 187 180 170 165 165 168 162 159 157 154 151 148 151 158 160 165 159 153 153 154 158
215 234 216 219 224 237 255 279 260 248 252 209 190 172 178 178 178 180 180 181 181 183 185 184 186 192 190 186 189 180 177 171 170 173 168 162 162 158 153 150 158 168 165 167 161 153 154 160 160
252 242 240 307 230 249 238 253 246 236 236 269 226 203 182 179 181 181 182 182 180 183 186 186 192 194 193 193 192 189 186 177 176 176 175 169 170 166 161 158 165 169 172 165 159 155 150 145 143
247 251 253 242 246 258 266 257 259 252 255 255 254 199 182 186 185 187 186 184 183 182 186 191 192 198 198 195 195 198 196 188 186 185 176 180 177 176 167 163 168 170 169 167 161 158 154 148 147
262 264 255 257 257 257 249 257 264 252 248 248 227 197 188 186 190 191 190 186 187 187 189 189 198 201 203 202 196 201 202 197 193 188 181 183 181 175 168 167 170 173 172 169 165 163 159 153 153
290 272 276 260 253 233 229 261 237 242 247 239 219 204 200 205 199 195 195 196 197 194 194 195 195 201 202 201 199 201 208 203 195 189 184 182 184 179 172 171 173 177 176 175 173 169 166 162 156
282 278 254 258 245 252 205 257 241 237 237 241 224 211 210 209 210 198 198 200 200 201 202 197 196 203 204 202 201 201 201 209 200 190 182 181 186 185 177 175 177 180 182 184 181 179 173 170 162
217 257 255 268 203 192 206 254 239 235 218 226 223 217 215 212 209 207 201 199 203 206 205 202 199 203 203 201 203 203 205 207 204 190 186 184 186 187 183 179 180 183 187 189 188 181 183 169 162
264 261 266 248 224 215 218 243 238 295 217 223 224 211 211 215 213 210 209 204 200 205 206 208 205 204 202 201 202 200 202 207 205 193 191 188 187 189 186 184 185 186 188 190 190 187 178 173 167
302 299 296 277 265 319 247 246 245 231 224 217 225 217 210 210 209 211 212 215 209 207 209 209 207 203 202 198 197 195 199 204 201 197 195 192 191 193 190 191 192 195 197 195 193 185 181 175 175
292 281 280 279 276 246 257 272 278 281 233 221 212 223 225 210 214 213 214 215 212 209 207 208 211 211 203 202 202 199 200 205 204 198 199 199 198 197 197 198 197 199 196 194 194 194 183 183 178
293 261 289 284 299 284 286 260 260 239 254 219 212 217 223 216 216 223 220 218 211 208 208 209 212 213 207 208 203 199 198 197 194 199 201 201 202 203 203 202 202 198 197 196 197 198 198 187 183
276 263 260 273 287 252 184 256 241 206 219 223 213 214 216 219 220 222 220 219 209 208 211 212 214 215 211 211 204 201 200 198 201 200 201 202 203 206 206 207 204 202 200 200 199 200 204 202 193
272 291 276 253 254 262 250 265 262 201 217 218 219 214 218 229 224 210 218 221 217 208 208 211 213 214 213 212 206 205 205 208 204 200 203 202 203 205 206 208 207 206 203 202 203 201 203 207 207
298 298 253 241 250 246 226 205 246 211 199 226 224 217 211 215 223 218 219 218 219 214 211 211 211 212 212 212 215 207 206 203 205 203 203 205 206 205 206 209 210 209 208 205 204 205 203 205 209
301 325 259 205 223 241 195 206 233 268 230 214 213 229 217 214 212 213 207 212 214 207 209 211 211 209 210 213 215 212 212 208 216 208 206 203 206 207 208 208 207 208 207 207 208 206 204 206 210
303 211 257 236 199 215 189 207 215 221 231 221 219 228 215 207 210 218 217 215 210 209 208 201 205 207 210 210 213 210 213 214 214 213 209 210 210 211 209 210 208 206 207 208 208 209 207 207 213
339 233 266 263 250 264 230 239 129 206 219 211 222 182 191 197 203 214 215 210 209 210 209 206 203 206 209 210 213 213 213 213 215 211 213 214 212 210 210 212 207 207 208 208 208 208 210 211 211
308 293 345 260 264 218 245 176 188 164 197 204 193 167 205 204 203 208 206 207 208 209 210 210 210 202 203 209 213 216 215 214 212 214 214 216 212 212 210 210 209 207 209 207 205 207 208 210 208
344 332 322 271 261 263 139 183 4 311 200 197 155 132 201 222 209 212 212 207 210 208 206 206 207 206 203 209 207 213 216 214 218 218 220 217 215 212 213 210 209 207 206 206 203 204 208 208 209
351 285 257 232 290 271 256 84 349 313 228 94 48 48 61 196 206 211 208 204 203 206 203 205 204 203 206 209 207 210 214 216 213 221 218 217 215 210 214 211 210 210 208 208 206 204 204 206 208
Height
1492 1494 1499 1502 1510 1505 1503 1496 1482 1479 1477 1468 1470 1472 1471 1469 1469 1481 1463 1466 1472 1477 1483 1490 1495 1499 1504 1507 1510 1513 1515 1517 1519 1521 1522 1525 1526 1528 1529 1530 1531 1533 1534 1537 1538 1540 1542 1543 1544
1491 1493 1498 1499 1507 1508 1503 1485 1479 1467 1466 1467 1468 1468 1469 1466 1463 1461 1463 1466 1473 1477 1484 1489 1495 1499 1502 1506 1509 1513 1515 1517 1519 1520 1522 1525 1526 1529 1530 1532 1532 1534 1536 1538 1540 1542 1544 1545 1546
1490 1492 1495 1497 1499 1490 1491 1476 1463 1463 1468 1467 1467 1466 1465 1463 1461 1461 1463 1465 1470 1476 1483 1489 1494 1498 1502 1506 1510 1512 1515 1517 1519 1520 1523 1526 1528 1530 1532 1533 1534 1535 1538 1540 1542 1544 1546 1547 1549
1489 1493 1494 1495 1483 1480 1475 1465 1464 1463 1464 1464 1465 1467 1463 1461 1460 1462 1463 1466 1469 1474 1481 1488 1494 1498 1502 1507 1510 1512 1515 1517 1519 1521 1523 1526 1528 1531 1533 1533 1535 1536 1539 1543 1544 1546 1548 1550 1551
1489 1488 1492 1490 1481 1472 1465 1461 1463 1462 1461 1459 1461 1461 1460 1459 1459 1461 1463 1466 1470 1475 1480 1486 1492 1497 1502 1506 1510 1513 1514 1517 1519 1522 1524 1526 1529 1531 1532 1533 1537 1538 1542 1545 1547 1549 1550 1552 1553
1487 1487 1492 1481 1473 1464 1461 1456 1459 1458 1457 1456 1460 1459 1458 1458 1459 1461 1463 1466 1472 1475 1481 1486 1491 1497 1502 1506 1509 1512 1515 1517 1519 1522 1525 1527 1530 1531 1533 1535 1538 1542 1545 1547 1550 1551 1553 1554 1556
1482 1485 1480 1472 1466 1464 1453 1448 1453 1450 1452 1450 1455 1455 1455 1456 1459 1461 1464 1468 1472 1476 1480 1485 1490 1496 1502 1506 1508 1512 1514 1517 1520 1523 1525 1528 1530 1532 1533 1536 1541 1544 1546 1549 1551 1553 1555 1556 1558
1476 1478 1472 1466 1462 1452 1444 1444 1443 1445 1443 1445 1449 1449 1453 1453 1457 1459 1464 1469 1473 1476 1479 1484 1489 1495 1500 1505 1508 1511 1514 1517 1521 1524 1526 1528 1531 1533 1534 1537 1542 1545 1548 1551 1553 1554 1556 1558 1560
1471 1474 1456 1450 1454 1443 1441 1443 1439 1439 1439 1439 1440 1441 1444 1449 1454 1459 1464 1469 1473 1477 1479 1482 1488 1494 1498 1503 1507 1511 1513 1517 1521 1524 1526 1529 1531 1534 1536 1539 1544 1546 1549 1551 1553 1555 1557 1559 1562
1462 1459 1438 1437 1440 1439 1438 1439 1438 1437 1437 1434 1436 1437 1438 1445 1450 1453 1457 1462 1468 1473 1478 1481 1486 1492 1496 1501 1506 1510 1514 1516 1520 1523 1526 1529 1532 1534 1537 1541 1545 1547 1550 1551 1554 1557 1560 1562 1564
1450 1432 1431 1432 1435 1437 1438 1437 1436 1434 1435 1431 1432 1434 1436 1438 1446 1448 1452 1455 1458 1466 1474 1479 1484 1490 1494 1499 1504 1508 1512 1516 1519 1521 1525 1528 1532 1535 1538 1541 1544 1546 1550 1551 1554 1558 1561 1564 1565
1445 1424 1434 1430 1435 1435 1434 1433 1431 1430 1429 1431 1433 1430 1432 1434 1440 1445 1449 1455 1459 1465 1471 1476 1482 1487 1492 1498 1503 1507 1510 1514 1518 1520 1523 1527 1530 1534 1537 1541 1544 1547 1550 1554 1557 1559 1562 1564 1566
1438 1421 1431 1431 1433 1433 1434 1430 1429 1422 1425 1429 1431 1429 1429 1431 1436 1442 1445 1451 1456 1462 1468 1473 1479 1484 1490 1496 1501 1505 1509 1512 1516 1519 1523 1526 1530 1533 1536 1541 1544 1547 1551 1555 1559 1561 1563 1565 1567
1427 1428 1427 1429 1426 1430 1431 1426 1431 1412 1422 1425 1426 1428 1427 1427 1433 1437 1442 1446 1452 1458 1463 1469 1475 1480 1488 1493 1498 1502 1508 1511 1514 1519 1523 1527 1531 1534 1537 1541 1545 1548 1552 1556 1560 1563 1565 1567 1569
1430 1428 1427 1418 1421 1422 1426 1418 1410 1416 1419 1419 1421 1424 1425 1427 1430 1430 1435 1441 1447 1454 1459 1465 1471 1477 1484 1490 1496 1500 1506 1510 1513 1518 1522 1527 1531 1535 1538 1542 1546 1549 1553 1557 1560 1564 1567 1569 1571
1431 1425 1412 1402 1415 1418 1424 1391 1394 1408 1415 1414 1415 1416 1418 1421 1427 1430 1433 1438 1444 1450 1454 1462 1467 1473 1480 1486 1492 1498 1503 1507 1512 1517 1521 1526 1530 1535 1539 1543 1547 1550 1554 1557 1560 1564 1567 1570 1573
1423 1411 1407 1403 1403 1410 1415 1385 1391 1400 1403 1403 1408 1411 1412 1415 1421 1426 1431 1436 1440 1446 1452 1458 1463 1468 1475 1483 1489 1495 1501 1505 1510 1515 1520 1525 1529 1534 1538 1543 1547 1551 1554 1558 1561 1564 1567 1570 1573
1414 1414 1405 1401 1399 1399 1399 1381 1388 1392 1395 1397 1401 1404 1407 1410 1413 1421 1428 1434 1439 1443 1448 1454 1459 1464 1471 1478 1485 1492 1498 1503 1508 1514 1518 1523 1527 1532 1537 1542 1546 1550 1554 1558 1561 1564 1567 1570 1571
1426 1425 1417 1404 1404 1407 1392 1380 1381 1388 1391 1393 1392 1395 1398 1402 1410 1416 1422 1429 1435 1440 1444 1448 1454 1460 1466 1472 1479 1486 1494 1499 1505 1511 1516 1521 1526 1531 1536 1540 1544 1548 1552 1556 1560 1564 1567 1569 1571
1425 1419 1416 1407 1400 1399 1396 1385 1387 1389 1379 1381 1385 1389 1393 1399 1405 1410 1415 1422 1427 1433 1438 1445 1449 1456 1462 1467 1476 1484 1489 1494 1501 1508 1515 1520 1525 1529 1534 1538 1541 1545 1550 1554 1558 1561 1564 1569 1571
1425 1418 1415 1413 1402 1393 1395 1377 1372 1378 1378 1376 1377 1376 1382 1389 1395 1402 1408 1414 1422 1426 1431 1438 1445 1452 1458 1464 1473 1480 1485 1492 1498 1505 1512 1516 1521 1527 1531 1535 1539 1543 1547 1551 1555 1559 1562 1565 1570
1422 1411 1410 1411 1410 1396 1387 1370 1354 1363 1364 1367 1369 1370 1371 1377 1384 1391 1398 1406 1413 1420 1426 1433 1441 1446 1453 1459 1466 1469 1477 1484 1492 1498 1505 1512 1519 1524 1529 1534 1538 1542 1546 1549 1553 1558 1562 1565 1567
1411 1410 1409 1398 1400 1399 1389 1395 1357 1348 1352 1355 1357 1362 1365 1370 1374 1382 1390 1397 1405 1414 1421 1428 1435 1441 1447 1453 1460 1467 1474 1484 1488 1494 1501 1509 1515 1521 1526 1531 1535 1540 1544 1548 1552 1555 1560 1565 1569
1409 1405 1398 1391 1392 1383 1378 1386 1361 1353 1350 1348 1350 1354 1358 1365 1370 1375 1382 1391 1398 1406 1414 1421 1428 1435 1441 1448 1453 1462 1469 1476 1485 1490 1499 1505 1512 1518 1523 1528 1533 1537 1542 1547 1550 1555 1559 1563 1568
1406 1408 1409 1391 1385 1376 1360 1373 1360 1343 1337 1339 1342 1345 1351 1358 1362 1369 1376 1384 1390 1397 1404 1411 1420 1427 1434 1443 1449 1458 1466 1470 1479 1486 1492 1499 1507 1513 1519 1523 1529 1535 1540 1545 1550 1553 1557 1561 1565
1403 1402 1403 1371 1364 1355 1343 1350 1340 1332 1331 1333 1336 1337 1342 1350 1357 1363 1369 1376 1382 1389 1398 1404 1412 1421 1429 1437 1445 1453 1462 1469 1474 1482 1488 1493 1501 1507 1516 1522 1527 1533 1538 1543 1548 1552 1556 1559 1563
1396 1390 1390 1387 1362 1364 1338 1328 1325 1325 1325 1327 1331 1331 1333 1340 1347 1354 1360 1367 1374 1381 1390 1397 1406 1415 1424 1431 1441 1447 1454 1465 1469 1477 1485 1490 1496 1503 1512 1519 1525 1530 1535 1540 1545 1550 1555 1558 1561
1406 1399 1394 1374 1381 1342 1338 1335 1330 1326 1323 1324 1327 1324 1332 1337 1344 1349 1355 1362 1369 1376 1385 1394 1401 1409 1418 1426 1435 1442 1451 1458 1467 1472 1479 1486 1493 1501 1507 1515 1522 1527 1533 1538 1541 1548 1553 1557 1560
1405 1402 1399 1392 1380 1345 1344 1338 1342 1336 1316 1319 1320 1320 1328 1331 1337 1344 1351 1358 1366 1372 1381 1388 1396 1402 1412 1420 1429 1438 1446 1455 1461 1468 1475 1481 1489 1495 1504 1511 1519 1525 1531 1536 1540 1545 1551 1555 1559
1406 1402 1398 1388 1376 1368 1349 1339 1352 1330 1325 1323 1326 1320 1328 1330 1332 1337 1344 1354 1361 1367 1376 1385 1393 1399 1407 1414 1424 1434 1443 1449 1457 1463 1470 1477 1486 1493 1500 1508 1516 1523 1528 1533 1537 1541 1545 1552 1556